Preview of NWS' New Version of Forecast
This preview is not operational and should not be used for support decisions.

Regional Weather Roundup (RWR)

Issued by National Weather Service (NWS)

                            
000
ASUS42 KTBW 221218
RWRFL 
FLORIDA REGIONAL WEATHER ROUNDUP
NATIONAL WEATHER SERVICE TAMPA BAY RUSKIN FL
800 AM EDT THU AUG 22 2019

NOTE: "FAIR" INDICATES FEW OR NO CLOUDS BELOW 12,000 FEET WITH NO
SIGNIFICANT WEATHER AND/OR OBSTRUCTIONS TO VISIBILITY.

FLZ001>010-012>015-112-114-115-221300-
PANHANDLE FLORIDA
  
CITY           SKY/WX    TMP DP  RH WIND       PRES   REMARKS
PENSACOLA      FAIR      77  77 100 E3        30.03S                  
PENSACOLA NAS  LGT RAIN  77  77 100 CALM      30.04R                  
MILTON NAS     MOCLDY    74  74 100 E3        30.05S THUNDER          
CRESTVIEW      FAIR      73  71  93 CALM      30.08R                  
DUKE FIELD     FAIR      73  73 100 CALM      30.06R THUNDER          
VALPARAISO     FAIR      79  75  89 E3        30.05R THUNDER          
MARY ESTHER    TSTM      77  73  90 CALM      30.05R                  
TRI COUNTY     FOG       72  71  97 CALM      30.09R VSB<1/4          
PANAMA CITY    FAIR      75  73  93 NE5       30.06R                  
TYNDALL AFB    FAIR      76  75  95 E5        30.05S                  
APALACHICOLA   FAIR      77  75  93 NE6       30.05R                  

STATION/POSITION SKY/WX   TEMP    WIND        PRES    WAVE   SWELL
                          AIR SEA DIR/SP/G            HT/PER HT/PER
                          (F)     (DEG/KT/KT) (MB)    (FT/S) (FT/S)
30.1N   87.6W              84 85  210/  2/  4 1016.8R   2/ 5   2/ 5
29.2N   88.2W              83 85  260/  4/  6 1016.6R   2/ 4   2/ 5
28.8N   86.0W                 84  170/  6/  8 1017.0R   2/ 5   2/ 5
PANAMA CITY BEAC           77 86   60/  5/  7 1018.1F
TOWER C                    83     180/  2/  3 1018.1R
28.5N   84.5W              83     170/  6/  8 1018.0R   1/ 7

$$
FLZ011-016>038-118-127-128-134-139-239-221300-
NORTH FLORIDA
  
CITY           SKY/WX    TMP DP  RH WIND       PRES   REMARKS
MARIANNA       FAIR      74  74 100 CALM      30.07R                  
TALLAHASSEE    FAIR      76  76 100 CALM      30.07R                  
PERRY          FAIR      77  76  97 CALM      30.08R                  
LIVE OAK       SUNNY     75  75 100 CALM      30.09R                  
CROSS CITY     FAIR      77  75  95 CALM      30.08R                  
LAKE CITY      FAIR      73  73 100 CALM      30.10R                  
GAINESVILLE    FAIR      74  73  97 CALM      30.11R                  
WILLISTON      FAIR      74  74  99 CALM      30.08R                  
MAYPORT NAS    FAIR      80  76  87 W3        30.09R                  
JACKSONVILLE   FAIR      76  75  97 CALM      30.09R                  
JAX NAS        FAIR      79  74  84 NW3       30.10R                  
JAX CECIL      SUNNY     73  72  94 CALM      30.09R                  
FERNANDINA BEA FAIR      78  77  97 MISG      30.09R                  
ST AUGUSTINE   FAIR      78  75  90 CALM      30.10R                  
PALM COAST     SUNNY     75  73  94 CALM      30.07S                  

STATION/POSITION SKY/WX   TEMP    WIND        PRES    WAVE   SWELL
                          AIR SEA DIR/SP/G            HT/PER HT/PER
                          (F)     (DEG/KT/KT) (MB)    (FT/S) (FT/S)
SHELL POINT      NOT AVBL
KEATON BEACH               77      80/  7/  8 1018.3R
CEDAR KEY                  81     140/  9/ 10 1017.6R
FERNANDINA                 83 85              1019.6R
30.7N   81.3W                 83                N/A     2/11
MAYPORT                    79 84  250/  2/  3 1019.1R
31.4N   80.9W              82 82  240/  6/  8 1019.0R   2/ 9   2/ 9
ST AUGUSTINE               83 81  250/  2/  4 1019.0R

$$
FLZ040-043>046-052-053-057-058-063-144-221300-
INTERIOR CENTRAL FLORIDA
  
CITY           SKY/WX    TMP DP  RH WIND       PRES   REMARKS
OCALA          FAIR      76  75  97 N3        30.09R                  
LEESBURG       FAIR      80  76  87 CALM      30.08R                  
SANFORD        FAIR      80  77  90 CALM      30.07R                  
ORLANDO EXEC   FAIR      80  76  87 CALM      30.07R                  
ORLANDO INTL   FAIR      79  76  90 CALM      30.07R                  
KISSIMMEE      FAIR      80  76  87 CALM      30.08R                  
WINTER HAVEN   FAIR      81  76  84 CALM      30.08R                  
LAKELAND       SUNNY     77  73  88 CALM      30.07R                  
BARTOW         SUNNY     77  75  94 CALM      30.06                   
SEBRING          N/A     77  76  98 N3        30.07R                  
OKEECHOBEE     FAIR      75  73  94 CALM      30.05R                  

$$
FLZ041-047-054-059-064-141-147-221300-
EAST CENTRAL FLORIDA
  
CITY           SKY/WX    TMP DP  RH WIND       PRES   REMARKS
ORMOND BEACH   SUNNY    N/A N/A N/A CALM      30.08R                  
DAYTONA BEACH  FAIR      80  76  87 CALM      30.07R                  
DELAND         FAIR      77  75  94 CALM      30.07S                  
NEW SMYRNA BEA SUNNY     81  73  78 CALM      30.08R                  
JFK SPACE CTR  FAIR      77  56  47 CALM      30.05R                  
TITUSVILLE     MOSUNNY  N/A N/A N/A CALM      30.07R                  
CAPE CANAVERAL FAIR      79  78  99 CALM      30.04S                  
PATRICK AFB    FAIR      83  79  88 SE5       30.05S                  
MELBOURNE      FAIR      82  76  81 CALM      30.05S                  
VERO BEACH     PTSUNNY   78  77  96 NW3       30.05S                  
FT PIERCE      FAIR      78  74  87 CALM      30.05R                  
STUART         MOSUNNY   81  73  78 E6        30.05S                  

STATION/POSITION SKY/WX   TEMP    WIND        PRES    WAVE   SWELL
                          AIR SEA DIR/SP/G            HT/PER HT/PER
                          (F)     (DEG/KT/KT) (MB)    (FT/S) (FT/S)
28.5N   80.2W              83 83  140/  6/  8 1017.7R   2/ 4   2/ 7
28.9N   78.5W              84 86  130/  8/ 10 1018.7R   3/11   2/11
TRIDENT PIER               81 83  140/  5/  7 1019.1S
28.4N   80.5W                 82                N/A     2/ 4
27.5N   80.2W                 83                N/A     2/ 5

$$
FLZ050-056-061-142-242-148-248-149-249-151-251-155-255-
160-260-221300-
WEST CENTRAL FLORIDA
  
CITY           SKY/WX    TMP DP  RH WIND       PRES   REMARKS
CRYSTAL RIVER  FAIR      75  73  94 CALM      30.07R                  
INVERNESS      FAIR      73  73 100 CALM      30.08R                  
BROOKSVILLE    FAIR      76  74  93 NE3       30.08R                  
CLEARWATER AIR FAIR      79  75  89 CALM      30.05R                  
ST PETE CLEARW FAIR      80  75  84 SE3       30.05R                  
TAMPA INTL     FAIR      80  75  84 E6        30.06R                  
PLANT CITY     FAIR      77  77 100 CALM      30.09R                  
MACDILL AFB    FAIR      79  75  89 SE3       30.05R                  
PETER O KNIGHT CLOUDY   N/A N/A N/A E3        30.06S                  
ST PETERSBURG  FAIR      81  74  79 SE8       30.04R                  
SARASOTA       FAIR      78  76  93 CALM      30.03R                  
VENICE         FAIR      79  79 100 E7        30.05R                  

STATION/POSITION SKY/WX   TEMP    WIND        PRES    WAVE   SWELL
                          AIR SEA DIR/SP/G            HT/PER HT/PER
                          (F)     (DEG/KT/KT) (MB)    (FT/S) (FT/S)
27.3N   84.2W                 85                N/A     3/ 7
CLEARWATER BEACH           80 87  120/  6/  8 1017.8R
MIDDLE TAMPA BAY           78     130/  9/ 10 1017.8R
VENICE                     77 86   70/  4/  6 1016.9R

$$
FLZ066-069-070-075>078-162-262-165-265-221300-
SOUTHWEST FLORIDA AND KEYS
  
CITY           SKY/WX    TMP DP  RH WIND       PRES   REMARKS
PUNTA GORDA    FAIR      76  76 100 E3        30.06R                  
FT MYERS       FAIR      78  75  90 NE3       30.04R                  
SOUTHWEST INTL FAIR      79  75  87 NE3       30.04R                  
NAPLES         FAIR      80  77  90 CALM      30.03R                  
MARCO ISLAND   FAIR     N/A N/A N/A N3          N/A                   
IMMOKALEE      FAIR      77  77 100 CALM      30.03R                  
MARATHON       CLOUDY    80  74  81 CALM      30.01R                  
KEY WEST NAS   FAIR      84  74  71 CALM      30.02R                  
KEY WEST INTL  FAIR      82  75  79 NW3       30.02R                  

STATION/POSITION SKY/WX   TEMP    WIND        PRES    WAVE   SWELL
                          AIR SEA DIR/SP/G            HT/PER HT/PER
                          (F)     (DEG/KT/KT) (MB)    (FT/S) (FT/S)
NAPLES                     78 87              1016.9R
26.0N   85.6W              83 85  230/  2/  4 1016.8R   2/ 7   2/ 7
DRY TORTUGAS               84      40/  4/  5 1016.6R
SAND KEY                   82      10/  9/ 11 1015.5R
SOMBRERO KEY               81      20/ 11/ 13 1016.4R
LONG KEY                   82                 1015.4R

$$
FLZ067-068-071>074-168-172>174-221300-
SOUTHEAST FLORIDA 
  
CITY           SKY/WX    TMP DP  RH WIND       PRES   REMARKS
W PALM BEACH   PTSUNNY   82  72  71 E7        30.03S                  
BOCA RATON     MOSUNNY   82  73  74 E6        30.03R                  
FT LAUDER-EXEC LGT RAIN  81  75  82 SE6       30.02R                  
FT LAUDERDALE  PTSUNNY   83  73  72 E12       30.02R                  
PEMBROKE PINES RAIN      80  74  81 NE5       30.04R                  
OPA LOCKA      FAIR      78  76  93 CALM      30.02S                  
MIAMI          PTSUNNY   78  74  87 CALM      30.02S                  
WEST KENDALL   FAIR      79  76  90 W3        30.02R                  
HOMESTEAD      FAIR      76  74  93 CALM      30.01R                  

STATION/POSITION SKY/WX   TEMP    WIND        PRES    WAVE   SWELL
                          AIR SEA DIR/SP/G            HT/PER HT/PER
                          (F)     (DEG/KT/KT) (MB)    (FT/S) (FT/S)
VIRGINIA KEY               81 88  350/  2/  3 1015.9
LAKE WORTH                 82 85  130/ 12/ 13 1017.9R
FOWEY ROCKS                80 86   40/  4/  5 1016.3R
SETTLEMENT POINT           83      90/ 13/ 15 1017.0R

$$